START_TIME,STEP,MOV.,M6,t_acc.,M7,t_acc.,M19,t_acc.,H36,t_acc.
1979-07-04 06:00:27.920 ,0,1,0.,12.0,0.,12.0,0.,12.0,0.,12.0
1979-07-04 06:00:39.920 ,0,1,0.,12.0,0.,12.0,0.,12.0,0.,12.0
1979-07-04 06:00:51.920 ,3,1,0.,12.0,0.,12.0,0.,12.0,0.,12.0
1979-07-04 06:01:03.920 ,3,1,0.,12.0,0.,12.0,0.,12.0,0.,12.0
1979-07-04 06:01:15.920 ,7,1,0.,12.0,0.,12.0,0.,12.0,0.,12.0
1979-07-04 06:01:27.920 ,7,1,0.,12.0,0.,12.0,0.,12.0,0.,12.0
1979-07-04 06:01:39.920 ,4,1,0.,12.0,0.,12.0,0.,12.0,0.,12.0
1979-07-04 06:01:51.920 ,4,1,0.,12.0,0.,12.0,0.,12.0,0.,12.0
1979-07-04 06:02:03.920 ,0,1,0.,12.0,0.,12.0,0.,12.0,0.,12.0
1979-07-04 06:02:15.920 ,0,1,0.,12.0,0.,12.0,0.,12.0,0.,12.0
1979-07-04 06:02:27.920 ,3,1,0.,12.0,0.,12.0,0.,12.0,0.,12.0
1979-07-04 06:02:39.920 ,3,1,0.,12.0,0.,12.0,0.,12.0,0.,12.0
1979-07-04 06:02:51.920 ,7,1,0.,12.0,0.,12.0,0.,12.0,0.,12.0
1979-07-04 06:03:03.920 ,7,1,0.,12.0,0.,12.0,0.,12.0,0.,12.0
1979-07-04 06:03:15.920 ,4,1,0.,12.0,0.,12.0,0.,12.0,0.,12.0
1979-07-04 06:03:27.920 ,4,1,0.,12.0,0.,12.0,0.,12.0,0.,12.0
1979-07-04 06:03:39.920 ,0,1,0.,12.0,0.,12.0,0.,12.0,0.,12.0
1979-07-04 06:03:51.920 ,0,1,0.,12.0,0.,12.0,0.,12.0,0.,12.0
1979-07-04 06:04:03.920 ,3,1,0.,12.0,0.,12.0,0.,12.0,0.,12.0
1979-07-04 06:04:15.920 ,3,1,0.,12.0,0.,12.0,0.,12.0,0.,12.0
1979-07-04 06:04:27.920 ,7,1,0.,12.0,0.,12.0,0.,12.0,0.,12.0
1979-07-04 06:04:39.920 ,7,1,0.,12.0,0.,12.0,0.,12.0,0.,12.0
1979-07-04 06:04:51.920 ,4,1,0.,12.0,0.,12.0,0.,12.0,0.,12.0
1979-07-04 06:05:03.920 ,4,1,0.,12.0,0.,12.0,0.,12.0,0.,12.0
1979-07-04 06:05:15.920 ,0,1,0.,12.0,0.,12.0,0.,12.0,0.,12.0
1979-07-04 06:05:27.920 ,0,1,0.,12.0,0.,12.0,0.,12.0,0.,12.0
1979-07-04 06:05:39.920 ,0,0,0.,12.0,0.,12.0,0.,12.0,0.,12.0
1979-07-04 06:05:51.920 ,0,0,0.,12.0,0.,12.0,0.,12.0,0.,12.0
1979-07-04 06:06:03.920 ,0,0,0.,12.0,0.,12.0,0.,12.0,0.,12.0
1979-07-04 06:06:15.920 ,0,0,0.,12.0,0.,12.0,0.,12.0,0.,12.0
1979-07-04 06:06:27.920 ,5,1,0.,12.0,0.,12.0,0.,12.0,0.,12.0
1979-07-04 06:06:39.920 ,5,1,0.,12.0,0.,12.0,0.,12.0,0.,12.0
1979-07-04 06:06:51.920 ,5,0,0.,12.0,0.,12.0,0.,12.0,0.,12.0
1979-07-04 06:07:03.920 ,5,0,0.,12.0,0.,12.0,0.,12.0,0.,12.0
1979-07-04 06:07:15.920 ,4,1,0.,12.0,0.,12.0,0.,12.0,0.,12.0
1979-07-04 06:07:27.920 ,4,1,0.,12.0,0.,12.0,0.,12.0,0.,12.0
1979-07-04 06:07:39.920 ,4,0,0.,12.0,0.,12.0,0.,12.0,0.,12.0
1979-07-04 06:07:51.920 ,4,0,0.,12.0,0.,12.0,0.,12.0,0.,12.0
1979-07-04 06:08:03.920 ,3,1,1.,12.0,0.,12.0,0.,12.0,0.,12.0
1979-07-04 06:08:15.920 ,3,1,0.,12.0,0.,12.0,0.,12.0,0.,12.0
1979-07-04 06:08:27.920 ,0,0,0.,12.0,0.,12.0,0.,12.0,0.,12.0
1979-07-04 06:08:39.920 ,0,0,0.,12.0,0.,12.0,0.,12.0,0.,12.0
1979-07-04 06:08:55.520 ,0,0,0.,12.0,0.,12.0,0.,12.0,0.,12.0
1979-07-04 06:09:07.520 ,0,0,0.,12.0,0.,12.0,0.,12.0,0.,12.0
1979-07-04 06:09:15.920 ,0,0,0.,12.0,0.,12.0,0.,12.0,0.,12.0
1979-07-04 06:09:27.920 ,0,0,0.,12.0,0.,12.0,0.,12.0,0.,12.0
1979-07-04 06:09:39.920 ,1,1,0.,12.0,0.,12.0,0.,12.0,0.,12.0
1979-07-04 06:09:51.920 ,1,1,0.,12.0,0.,12.0,0.,12.0,0.,12.0
1979-07-04 06:10:03.920 ,1,0,0.,12.0,0.,12.0,0.,12.0,0.,12.0
1979-07-04 06:10:15.920 ,1,0,0.,12.0,0.,12.0,0.,12.0,0.,12.0
1979-07-04 06:10:27.920 ,0,1,0.,12.0,0.,12.0,0.,12.0,0.,12.0
1979-07-04 06:10:39.920 ,0,1,0.,12.0,0.,12.0,0.,12.0,0.,12.0
1979-07-04 06:10:51.920 ,0,0,0.,12.0,0.,12.0,0.,12.0,0.,12.0
1979-07-04 06:11:03.920 ,0,0,0.,12.0,0.,12.0,0.,12.0,0.,12.0
1979-07-04 06:11:15.920 ,0,1,0.,12.0,0.,12.0,0.,12.0,0.,12.0
1979-07-04 06:11:27.920 ,0,1,0.,12.0,0.,12.0,0.,12.0,0.,12.0
1979-07-04 06:11:39.920 ,0,0,0.,12.0,0.,12.0,0.,12.0,0.,12.0
1979-07-04 06:11:51.920 ,0,0,0.,12.0,0.,12.0,0.,12.0,0.,12.0
1979-07-04 06:12:03.920 ,1,1,0.,12.0,0.,12.0,0.,12.0,0.,12.0
1979-07-04 06:12:15.920 ,1,1,0.,12.0,0.,12.0,0.,12.0,0.,12.0
1979-07-04 06:12:27.920 ,1,0,0.,12.0,0.,12.0,0.,12.0,0.,12.0
1979-07-04 06:12:39.920 ,1,0,0.,12.0,0.,12.0,0.,12.0,0.,12.0
1979-07-04 06:12:51.920 ,2,1,0.,12.0,0.,12.0,0.,12.0,0.,12.0
1979-07-04 06:13:03.920 ,2,1,0.,12.0,0.,12.0,0.,12.0,0.,12.0
1979-07-04 06:13:15.920 ,2,0,0.,12.0,0.,12.0,0.,12.0,0.,12.0
1979-07-04 06:13:27.920 ,2,0,0.,12.0,0.,12.0,0.,12.0,0.,12.0
1979-07-04 06:13:39.920 ,3,1,0.,12.0,0.,12.0,0.,12.0,0.,12.0
1979-07-04 06:13:51.920 ,3,1,0.,12.0,0.,12.0,0.,12.0,0.,12.0
1979-07-04 06:14:03.920 ,3,0,0.,12.0,0.,12.0,0.,12.0,0.,12.0
1979-07-04 06:14:15.920 ,3,0,0.,12.0,0.,12.0,0.,12.0,0.,12.0
1979-07-04 06:14:27.920 ,4,1,0.,12.0,0.,12.0,0.,12.0,0.,12.0
1979-07-04 06:14:39.920 ,4,1,0.,12.0,0.,12.0,0.,12.0,0.,12.0
1979-07-04 06:14:51.920 ,4,0,0.,12.0,0.,12.0,0.,12.0,0.,12.0
1979-07-04 06:15:03.920 ,4,0,0.,12.0,0.,12.0,0.,12.0,0.,12.0
1979-07-04 06:15:15.920 ,5,1,0.,12.0,0.,12.0,0.,12.0,0.,12.0
1979-07-04 06:15:27.920 ,5,1,0.,12.0,0.,12.0,0.,12.0,0.,12.0
1979-07-04 06:15:39.920 ,5,0,0.,12.0,0.,12.0,0.,12.0,0.,12.0
1979-07-04 06:15:51.920 ,5,0,0.,12.0,0.,12.0,0.,12.0,0.,12.0
1979-07-04 06:16:03.920 ,6,1,0.,12.0,0.,12.0,0.,12.0,0.,12.0
1979-07-04 06:16:15.920 ,6,1,0.,12.0,0.,12.0,0.,12.0,0.,12.0
1979-07-04 06:16:27.920 ,6,0,0.,12.0,0.,12.0,0.,12.0,0.,12.0
1979-07-04 06:16:39.920 ,6,0,0.,12.0,0.,12.0,0.,12.0,0.,12.0
1979-07-04 06:16:51.920 ,7,1,0.,12.0,0.,12.0,0.,12.0,0.,12.0
1979-07-04 06:17:03.920 ,7,1,0.,12.0,0.,12.0,0.,12.0,0.,12.0
1979-07-04 06:17:15.920 ,7,0,0.,12.0,0.,12.0,0.,12.0,0.,12.0
1979-07-04 06:17:27.920 ,7,0,0.,12.0,0.,12.0,0.,12.0,0.,12.0
1979-07-04 06:17:39.920 ,7,1,0.,12.0,0.,12.0,0.,12.0,0.,12.0
1979-07-04 06:17:51.920 ,7,1,0.,12.0,0.,12.0,0.,12.0,0.,12.0
1979-07-04 06:18:03.920 ,7,0,0.,12.0,0.,12.0,0.,12.0,0.,12.0
1979-07-04 06:18:15.920 ,7,0,0.,12.0,0.,12.0,0.,12.0,0.,12.0
1979-07-04 06:18:27.920 ,6,1,0.,12.0,0.,12.0,0.,12.0,0.,12.0
1979-07-04 06:18:39.920 ,6,1,0.,12.0,0.,12.0,0.,12.0,0.,12.0
1979-07-04 06:18:51.920 ,6,0,0.,12.0,0.,12.0,0.,12.0,0.,12.0
1979-07-04 06:19:03.920 ,6,0,0.,12.0,0.,12.0,0.,12.0,0.,12.0
1979-07-04 06:19:15.920 ,5,1,0.,12.0,0.,12.0,0.,12.0,0.,12.0
1979-07-04 06:19:27.920 ,5,1,0.,12.0,0.,12.0,0.,12.0,0.,12.0
1979-07-04 06:19:39.920 ,5,0,0.,12.0,0.,12.0,0.,12.0,0.,12.0
1979-07-04 06:19:51.920 ,5,0,0.,12.0,0.,12.0,0.,12.0,0.,12.0
1979-07-04 06:20:03.920 ,4,1,0.,12.0,0.,12.0,0.,12.0,0.,12.0
1979-07-04 06:20:15.920 ,4,1,0.,12.0,0.,12.0,0.,12.0,0.,12.0
1979-07-04 06:20:27.920 ,4,0,0.,12.0,0.,12.0,0.,12.0,0.,12.0
1979-07-04 06:20:39.920 ,4,0,0.,12.0,0.,12.0,0.,12.0,0.,12.0
1979-07-04 06:20:51.920 ,3,1,0.,12.0,0.,12.0,0.,12.0,0.,12.0
1979-07-04 06:21:03.920 ,3,1,0.,12.0,0.,12.0,0.,12.0,0.,12.0
1979-07-04 06:21:15.920 ,3,0,0.,12.0,0.,12.0,0.,12.0,0.,12.0
1979-07-04 06:21:27.920 ,3,0,0.,12.0,0.,12.0,0.,12.0,0.,12.0
1979-07-04 06:21:39.920 ,2,1,0.,12.0,0.,12.0,0.,12.0,0.,12.0
1979-07-04 06:21:51.920 ,2,1,0.,12.0,0.,12.0,0.,12.0,0.,12.0
1979-07-04 06:22:03.920 ,2,0,0.,12.0,0.,12.0,0.,12.0,0.,12.0
1979-07-04 06:22:15.920 ,2,0,0.,12.0,0.,12.0,0.,12.0,0.,12.0
1979-07-04 06:22:27.920 ,1,1,0.,12.0,0.,12.0,0.,12.0,0.,12.0
1979-07-04 06:22:39.920 ,1,1,0.,12.0,0.,12.0,0.,12.0,0.,12.0
1979-07-04 06:22:51.920 ,1,0,0.,12.0,0.,12.0,0.,12.0,0.,12.0
1979-07-04 06:23:03.920 ,1,0,0.,12.0,0.,12.0,0.,12.0,0.,12.0
1979-07-04 06:23:15.920 ,0,1,0.,12.0,0.,12.0,0.,12.0,0.,12.0
1979-07-04 06:23:27.920 ,0,1,0.,12.0,0.,12.0,0.,12.0,0.,12.0
1979-07-04 06:23:39.920 ,0,0,0.,12.0,0.,12.0,0.,12.0,0.,12.0
1979-07-04 06:23:51.920 ,0,0,0.,12.0,0.,12.0,0.,12.0,0.,12.0
1979-07-04 06:24:03.920 ,0,1,0.,12.0,0.,12.0,0.,12.0,0.,12.0
1979-07-04 06:24:15.920 ,0,1,0.,12.0,0.,12.0,0.,12.0,0.,12.0
1979-07-04 06:24:27.920 ,0,0,0.,12.0,0.,12.0,0.,12.0,0.,12.0
1979-07-04 06:24:39.920 ,0,0,0.,12.0,0.,12.0,0.,12.0,0.,12.0
1979-07-04 06:24:51.920 ,1,1,0.,12.0,0.,12.0,0.,12.0,0.,12.0
1979-07-04 06:25:03.920 ,1,1,0.,12.0,0.,12.0,0.,12.0,0.,12.0
1979-07-04 06:25:15.920 ,1,0,0.,12.0,0.,12.0,0.,12.0,0.,12.0
1979-07-04 06:25:27.920 ,1,0,0.,12.0,0.,12.0,0.,12.0,0.,12.0
1979-07-04 06:25:39.920 ,2,1,0.,12.0,0.,12.0,0.,12.0,0.,12.0
1979-07-04 06:25:51.920 ,2,1,0.,12.0,0.,12.0,0.,12.0,0.,12.0
1979-07-04 06:26:03.920 ,2,0,0.,12.0,0.,12.0,0.,12.0,0.,12.0
1979-07-04 06:26:15.920 ,2,0,0.,12.0,0.,12.0,0.,12.0,0.,12.0
1979-07-04 06:26:27.920 ,3,1,0.,12.0,0.,12.0,0.,12.0,0.,12.0
1979-07-04 06:26:39.920 ,3,1,0.,12.0,0.,12.0,0.,12.0,0.,12.0
1979-07-04 06:26:51.920 ,3,0,0.,12.0,0.,12.0,0.,12.0,0.,12.0
1979-07-04 06:27:03.920 ,3,0,0.,12.0,0.,12.0,0.,12.0,0.,12.0
1979-07-04 06:27:15.920 ,4,1,0.,12.0,0.,12.0,0.,12.0,0.,12.0
1979-07-04 06:27:27.920 ,4,1,0.,12.0,0.,12.0,0.,12.0,0.,12.0
1979-07-04 06:27:39.920 ,4,0,0.,12.0,0.,12.0,0.,12.0,0.,12.0
1979-07-04 06:27:51.920 ,4,0,0.,12.0,0.,12.0,0.,12.0,0.,12.0
1979-07-04 06:28:03.920 ,5,1,0.,12.0,0.,12.0,0.,12.0,0.,12.0
1979-07-04 06:28:15.920 ,5,1,0.,12.0,0.,12.0,0.,12.0,0.,12.0
1979-07-04 06:28:27.920 ,5,0,0.,12.0,0.,12.0,0.,12.0,0.,12.0
1979-07-04 06:28:39.920 ,5,0,0.,12.0,0.,12.0,0.,12.0,0.,12.0
1979-07-04 06:28:51.920 ,6,1,0.,12.0,0.,12.0,0.,12.0,0.,12.0
1979-07-04 06:29:03.920 ,6,1,0.,12.0,0.,12.0,0.,12.0,0.,12.0
1979-07-04 06:29:15.920 ,6,0,0.,12.0,0.,12.0,0.,12.0,0.,12.0
1979-07-04 06:29:27.920 ,6,0,0.,12.0,0.,12.0,0.,12.0,0.,12.0
1979-07-04 06:29:39.920 ,7,1,0.,12.0,0.,12.0,0.,12.0,0.,12.0
1979-07-04 06:29:51.920 ,7,1,0.,12.0,0.,12.0,0.,12.0,0.,12.0
1979-07-04 06:30:03.920 ,7,0,0.,12.0,0.,12.0,0.,12.0,0.,12.0
1979-07-04 06:30:15.920 ,7,0,0.,12.0,0.,12.0,0.,12.0,0.,12.0
1979-07-04 06:30:27.920 ,7,1,0.,12.0,0.,12.0,0.,12.0,0.,12.0
1979-07-04 06:30:39.920 ,7,1,0.,12.0,0.,12.0,0.,12.0,0.,12.0
1979-07-04 06:30:51.920 ,7,0,0.,12.0,0.,12.0,0.,12.0,0.,12.0
1979-07-04 06:31:03.920 ,7,0,0.,12.0,0.,12.0,0.,12.0,0.,12.0
1979-07-04 06:31:15.920 ,6,1,0.,12.0,0.,12.0,0.,12.0,0.,12.0
1979-07-04 06:31:27.920 ,6,1,0.,12.0,0.,12.0,0.,12.0,0.,12.0
1979-07-04 06:31:39.920 ,6,0,0.,12.0,0.,12.0,0.,12.0,0.,12.0
1979-07-04 06:31:51.920 ,6,0,0.,12.0,0.,12.0,0.,12.0,0.,12.0
1979-07-04 06:32:03.920 ,5,1,0.,12.0,0.,12.0,0.,12.0,0.,12.0
1979-07-04 06:32:15.920 ,5,1,0.,12.0,0.,12.0,0.,12.0,0.,12.0
1979-07-04 06:32:27.920 ,5,0,0.,12.0,0.,12.0,0.,12.0,0.,12.0
1979-07-04 06:32:39.920 ,5,0,0.,12.0,0.,12.0,0.,12.0,0.,12.0
1979-07-04 06:32:51.920 ,4,1,0.,12.0,0.,12.0,0.,12.0,0.,12.0
1979-07-04 06:33:03.920 ,4,1,0.,12.0,0.,12.0,0.,12.0,0.,12.0
1979-07-04 06:33:15.920 ,4,0,0.,12.0,0.,12.0,0.,12.0,0.,12.0
1979-07-04 06:33:27.920 ,4,0,0.,12.0,0.,12.0,0.,12.0,0.,12.0
1979-07-04 06:33:39.920 ,3,1,0.,12.0,0.,12.0,0.,12.0,0.,12.0
1979-07-04 06:33:51.920 ,3,1,0.,12.0,0.,12.0,0.,12.0,0.,12.0
1979-07-04 06:34:03.920 ,3,0,0.,12.0,0.,12.0,0.,12.0,0.,12.0
1979-07-04 06:34:15.920 ,3,0,0.,12.0,0.,12.0,0.,12.0,0.,12.0
1979-07-04 06:34:27.920 ,2,1,0.,12.0,0.,12.0,0.,12.0,0.,12.0
1979-07-04 06:34:39.920 ,2,1,0.,12.0,0.,12.0,0.,12.0,0.,12.0
1979-07-04 06:34:51.920 ,2,0,0.,12.0,0.,12.0,0.,12.0,0.,12.0
1979-07-04 06:35:03.920 ,2,0,0.,12.0,0.,12.0,0.,12.0,0.,12.0
1979-07-04 06:35:15.920 ,1,1,0.,12.0,0.,12.0,0.,12.0,0.,12.0
1979-07-04 06:35:27.920 ,1,1,0.,12.0,0.,12.0,0.,12.0,0.,12.0
1979-07-04 06:35:39.920 ,1,0,0.,12.0,0.,12.0,0.,12.0,0.,12.0
1979-07-04 06:35:51.920 ,1,0,0.,12.0,0.,12.0,0.,12.0,0.,12.0
1979-07-04 06:36:03.920 ,0,1,0.,12.0,0.,12.0,0.,12.0,0.,12.0
1979-07-04 06:36:15.920 ,0,1,0.,12.0,0.,12.0,0.,12.0,0.,12.0
1979-07-04 06:36:27.920 ,0,0,0.,12.0,0.,12.0,0.,12.0,0.,12.0
1979-07-04 06:36:39.920 ,0,0,0.,12.0,0.,12.0,0.,12.0,0.,12.0
1979-07-04 06:36:51.920 ,0,1,0.,12.0,0.,12.0,0.,12.0,0.,12.0
1979-07-04 06:37:03.920 ,0,1,0.,12.0,0.,12.0,0.,12.0,0.,12.0
1979-07-04 06:37:15.920 ,0,0,0.,12.0,0.,12.0,0.,12.0,0.,12.0
1979-07-04 06:37:27.920 ,0,0,0.,12.0,0.,12.0,0.,12.0,0.,12.0
1979-07-04 06:37:39.920 ,1,1,0.,12.0,0.,12.0,0.,12.0,0.,12.0
1979-07-04 06:37:51.920 ,1,1,0.,12.0,0.,12.0,0.,12.0,0.,12.0
1979-07-04 06:38:03.920 ,1,0,0.,12.0,0.,12.0,0.,12.0,0.,12.0
1979-07-04 06:38:15.920 ,1,0,0.,12.0,0.,12.0,0.,12.0,0.,12.0
1979-07-04 06:38:27.920 ,2,1,0.,12.0,0.,12.0,0.,12.0,0.,12.0
1979-07-04 06:38:39.920 ,2,1,0.,12.0,0.,12.0,0.,12.0,0.,12.0
1979-07-04 06:38:51.920 ,2,0,0.,12.0,0.,12.0,0.,12.0,0.,12.0
1979-07-04 06:39:03.920 ,2,0,0.,12.0,0.,12.0,0.,12.0,0.,12.0
1979-07-04 06:39:15.920 ,3,1,0.,12.0,0.,12.0,0.,12.0,0.,12.0
1979-07-04 06:39:27.920 ,3,1,0.,12.0,0.,12.0,0.,12.0,0.,12.0
1979-07-04 06:39:39.920 ,3,0,0.,12.0,0.,12.0,0.,12.0,0.,12.0
1979-07-04 06:39:51.920 ,3,0,0.,12.0,0.,12.0,0.,12.0,0.,12.0
1979-07-04 06:40:03.920 ,4,1,0.,12.0,0.,12.0,0.,12.0,0.,12.0
1979-07-04 06:40:15.920 ,4,1,0.,12.0,0.,12.0,0.,12.0,0.,12.0
1979-07-04 06:40:27.920 ,4,0,0.,12.0,0.,12.0,0.,12.0,0.,12.0
1979-07-04 06:40:39.920 ,4,0,0.,12.0,0.,12.0,0.,12.0,0.,12.0
1979-07-04 06:40:51.920 ,5,1,0.,12.0,0.,12.0,0.,12.0,0.,12.0
1979-07-04 06:41:03.920 ,5,1,0.,12.0,0.,12.0,0.,12.0,0.,12.0
1979-07-04 06:41:15.920 ,5,0,0.,12.0,0.,12.0,0.,12.0,0.,12.0
1979-07-04 06:41:27.920 ,5,0,0.,12.0,0.,12.0,0.,12.0,0.,12.0
1979-07-04 06:41:39.920 ,6,1,0.,12.0,0.,12.0,0.,12.0,0.,12.0
1979-07-04 06:41:51.920 ,6,1,0.,12.0,0.,12.0,0.,12.0,0.,12.0
1979-07-04 06:42:03.920 ,6,0,0.,12.0,0.,12.0,0.,12.0,0.,12.0
1979-07-04 06:42:15.920 ,6,0,0.,12.0,0.,12.0,0.,12.0,0.,12.0
1979-07-04 06:42:27.920 ,7,0,0.,12.0,0.,12.0,0.,12.0,0.,12.0
1979-07-04 06:42:39.920 ,7,0,0.,12.0,0.,12.0,0.,12.0,0.,12.0
1979-07-04 06:42:51.920 ,7,0,0.,12.0,0.,12.0,0.,12.0,0.,12.0
1979-07-04 06:43:03.920 ,7,0,0.,12.0,0.,12.0,0.,12.0,0.,12.0
1979-07-04 06:43:15.920 ,4,1,0.,12.0,0.,12.0,0.,12.0,0.,12.0
1979-07-04 06:43:27.920 ,4,1,0.,12.0,0.,12.0,0.,12.0,0.,12.0
1979-07-04 06:43:39.920 ,0,1,0.,12.0,0.,12.0,0.,12.0,0.,12.0
1979-07-04 06:43:51.920 ,0,1,0.,12.0,0.,12.0,0.,12.0,0.,12.0
1979-07-04 06:44:03.920 ,3,1,0.,12.0,0.,12.0,0.,12.0,0.,12.0
1979-07-04 06:44:15.920 ,3,1,0.,12.0,0.,12.0,0.,12.0,0.,12.0
1979-07-04 06:44:27.920 ,7,1,0.,12.0,0.,12.0,0.,12.0,0.,12.0
1979-07-04 06:44:39.920 ,7,1,0.,12.0,0.,12.0,0.,12.0,0.,12.0
1979-07-04 06:44:51.920 ,4,1,0.,12.0,0.,12.0,0.,12.0,0.,12.0
1979-07-04 06:45:03.920 ,4,1,0.,12.0,0.,12.0,0.,12.0,0.,12.0
1979-07-04 06:45:15.920 ,0,1,0.,12.0,0.,12.0,0.,12.0,0.,12.0
1979-07-04 06:45:27.920 ,0,1,0.,12.0,0.,12.0,0.,12.0,0.,12.0
1979-07-04 06:45:39.920 ,3,1,0.,12.0,0.,12.0,0.,12.0,0.,12.0
1979-07-04 06:45:51.920 ,3,1,0.,12.0,0.,12.0,0.,12.0,0.,12.0
1979-07-04 06:46:03.920 ,7,1,0.,12.0,0.,12.0,0.,12.0,0.,12.0
1979-07-04 06:46:15.920 ,7,1,0.,12.0,0.,12.0,0.,12.0,0.,12.0
1979-07-04 06:46:27.920 ,4,1,0.,12.0,0.,12.0,0.,12.0,0.,12.0
1979-07-04 06:46:39.920 ,4,1,0.,12.0,0.,12.0,0.,12.0,0.,12.0
1979-07-04 06:46:51.920 ,0,1,0.,12.0,0.,12.0,0.,12.0,1.,12.0
1979-07-04 06:47:03.920 ,0,1,0.,12.0,0.,12.0,0.,12.0,0.,12.0
1979-07-04 06:47:15.920 ,3,1,0.,12.0,0.,12.0,0.,12.0,0.,12.0
1979-07-04 06:47:27.920 ,3,1,0.,12.0,0.,12.0,0.,12.0,0.,12.0
1979-07-04 06:47:39.920 ,7,1,0.,12.0,0.,12.0,0.,12.0,0.,12.0
1979-07-04 06:47:51.920 ,7,1,0.,12.0,0.,12.0,0.,12.0,0.,12.0
1979-07-04 06:48:03.920 ,4,1,0.,12.0,0.,12.0,0.,12.0,0.,12.0
1979-07-04 06:48:15.920 ,4,1,0.,12.0,0.,12.0,0.,12.0,0.,12.0
1979-07-04 06:48:27.920 ,0,1,0.,12.0,0.,12.0,0.,12.0,0.,12.0
1979-07-04 06:48:39.920 ,0,1,0.,12.0,0.,12.0,0.,12.0,0.,12.0
1979-07-04 06:48:51.920 ,3,1,0.,12.0,0.,12.0,0.,12.0,0.,12.0
1979-07-04 06:49:03.920 ,3,1,0.,12.0,0.,12.0,0.,12.0,0.,12.0
1979-07-04 06:49:15.920 ,7,1,0.,12.0,0.,12.0,0.,12.0,0.,12.0
1979-07-04 06:49:27.920 ,7,1,0.,12.0,0.,12.0,0.,12.0,0.,12.0
1979-07-04 06:49:39.920 ,4,1,0.,12.0,0.,12.0,0.,12.0,0.,12.0
1979-07-04 06:49:51.920 ,4,1,0.,12.0,0.,12.0,0.,12.0,0.,12.0
1979-07-04 06:50:03.920 ,0,1,0.,12.0,0.,12.0,0.,12.0,0.,12.0
1979-07-04 06:50:15.920 ,0,1,0.,12.0,0.,12.0,0.,12.0,0.,12.0
1979-07-04 06:50:27.920 ,3,1,0.,12.0,0.,12.0,0.,12.0,0.,12.0
1979-07-04 06:50:39.920 ,3,1,0.,12.0,0.,12.0,0.,12.0,0.,12.0
1979-07-04 06:50:51.920 ,7,1,0.,12.0,0.,12.0,0.,12.0,0.,12.0
1979-07-04 06:51:03.920 ,7,1,0.,12.0,0.,12.0,0.,12.0,0.,12.0
1979-07-04 06:51:15.920 ,4,1,0.,12.0,0.,12.0,0.,12.0,0.,12.0
1979-07-04 06:51:27.920 ,4,1,0.,12.0,0.,12.0,0.,12.0,0.,12.0
1979-07-04 06:51:39.920 ,0,1,0.,12.0,0.,12.0,0.,12.0,0.,12.0
1979-07-04 06:51:51.920 ,0,1,0.,12.0,0.,12.0,0.,12.0,0.,12.0
1979-07-04 06:52:03.920 ,3,1,0.,12.0,0.,12.0,0.,12.0,0.,12.0
1979-07-04 06:52:15.920 ,3,1,0.,12.0,0.,12.0,0.,12.0,0.,12.0
1979-07-04 06:52:27.920 ,7,1,0.,12.0,0.,12.0,0.,12.0,0.,12.0
1979-07-04 06:52:39.920 ,7,1,0.,12.0,0.,12.0,0.,12.0,0.,12.0
1979-07-04 06:52:51.920 ,4,1,0.,12.0,0.,12.0,0.,12.0,0.,12.0
1979-07-04 06:53:03.920 ,4,1,0.,12.0,0.,12.0,0.,12.0,0.,12.0
1979-07-04 06:53:15.920 ,0,1,0.,12.0,0.,12.0,0.,12.0,0.,12.0
1979-07-04 06:53:27.920 ,0,1,0.,12.0,0.,12.0,0.,12.0,0.,12.0
1979-07-04 06:53:39.920 ,0,0,0.,12.0,0.,12.0,0.,12.0,0.,12.0
1979-07-04 06:53:51.920 ,0,0,0.,12.0,0.,12.0,0.,12.0,0.,12.0
1979-07-04 06:54:03.920 ,0,0,0.,12.0,0.,12.0,0.,12.0,0.,12.0
1979-07-04 06:54:15.920 ,0,0,0.,12.0,0.,12.0,0.,12.0,0.,12.0
1979-07-04 06:54:27.920 ,5,1,0.,12.0,0.,12.0,0.,12.0,0.,12.0
1979-07-04 06:54:39.920 ,5,1,0.,12.0,0.,12.0,0.,12.0,0.,12.0
1979-07-04 06:54:51.920 ,5,0,0.,12.0,0.,12.0,0.,12.0,0.,12.0
1979-07-04 06:55:03.920 ,5,0,0.,12.0,0.,12.0,0.,12.0,0.,12.0
1979-07-04 06:55:15.920 ,4,1,0.,12.0,0.,12.0,0.,12.0,0.,12.0
1979-07-04 06:55:27.920 ,4,1,0.,12.0,0.,12.0,0.,12.0,0.,12.0
1979-07-04 06:55:39.920 ,4,0,0.,12.0,0.,12.0,0.,12.0,0.,12.0
1979-07-04 06:55:51.920 ,4,0,0.,12.0,0.,12.0,0.,12.0,0.,12.0
1979-07-04 06:56:03.920 ,3,1,0.,12.0,0.,12.0,0.,12.0,0.,12.0
1979-07-04 06:56:15.920 ,3,1,0.,12.0,0.,12.0,0.,12.0,0.,12.0
1979-07-04 06:56:27.920 ,3,0,0.,12.0,0.,12.0,0.,12.0,0.,12.0
1979-07-04 06:56:39.920 ,3,0,0.,12.0,0.,12.0,0.,12.0,0.,12.0
1979-07-04 06:56:51.920 ,2,1,0.,12.0,0.,12.0,0.,12.0,0.,12.0
1979-07-04 06:57:03.920 ,2,1,0.,12.0,0.,12.0,0.,12.0,0.,12.0
1979-07-04 06:57:15.920 ,2,0,0.,12.0,0.,12.0,0.,12.0,0.,12.0
1979-07-04 06:57:27.920 ,2,0,0.,12.0,0.,12.0,0.,12.0,0.,12.0
1979-07-04 06:57:39.920 ,1,1,0.,12.0,0.,12.0,0.,12.0,0.,12.0
1979-07-04 06:57:51.920 ,1,1,0.,12.0,0.,12.0,0.,12.0,0.,12.0
1979-07-04 06:58:03.920 ,1,0,0.,12.0,0.,12.0,0.,12.0,0.,12.0
1979-07-04 06:58:15.920 ,1,0,0.,12.0,0.,12.0,0.,12.0,0.,12.0
1979-07-04 06:58:27.920 ,0,1,0.,12.0,0.,12.0,0.,12.0,0.,12.0
1979-07-04 06:58:39.920 ,0,1,0.,12.0,0.,12.0,0.,12.0,0.,12.0
1979-07-04 06:58:51.920 ,0,0,0.,12.0,0.,12.0,0.,12.0,0.,12.0
1979-07-04 06:59:03.920 ,0,0,0.,12.0,0.,12.0,0.,12.0,0.,12.0
1979-07-04 06:59:15.920 ,0,1,0.,12.0,0.,12.0,0.,12.0,0.,12.0
1979-07-04 06:59:27.920 ,0,1,0.,12.0,0.,12.0,0.,12.0,0.,12.0
1979-07-04 06:59:39.920 ,0,0,0.,12.0,0.,12.0,0.,12.0,0.,12.0
1979-07-04 06:59:51.920 ,0,0,0.,12.0,0.,12.0,0.,12.0,0.,12.0
1979-07-04 07:00:03.910 ,1,1,0.,12.0,0.,12.0,0.,12.0,0.,12.0
1979-07-04 07:00:15.910 ,1,1,0.,12.0,0.,12.0,0.,12.0,0.,12.0
1979-07-04 07:00:27.920 ,1,0,0.,12.0,0.,12.0,0.,12.0,0.,12.0
1979-07-04 07:00:39.920 ,1,0,0.,12.0,0.,12.0,0.,12.0,0.,12.0
1979-07-04 07:00:51.920 ,2,1,0.,12.0,0.,12.0,0.,12.0,0.,12.0
1979-07-04 07:01:03.920 ,2,1,0.,12.0,0.,12.0,0.,12.0,0.,12.0
1979-07-04 07:01:15.920 ,2,0,0.,12.0,0.,12.0,0.,12.0,0.,12.0
1979-07-04 07:01:27.920 ,2,0,0.,12.0,0.,12.0,0.,12.0,0.,12.0
1979-07-04 07:01:39.920 ,3,1,0.,12.0,0.,12.0,0.,12.0,0.,12.0
1979-07-04 07:01:51.920 ,3,1,0.,12.0,0.,12.0,0.,12.0,0.,12.0
1979-07-04 07:02:03.920 ,3,0,0.,12.0,0.,12.0,0.,12.0,0.,12.0
1979-07-04 07:02:15.920 ,3,0,0.,12.0,0.,12.0,0.,12.0,0.,12.0
1979-07-04 07:02:27.920 ,4,1,0.,12.0,0.,12.0,0.,12.0,0.,12.0
1979-07-04 07:02:39.920 ,4,1,0.,12.0,0.,12.0,0.,12.0,0.,12.0
1979-07-04 07:02:51.920 ,4,0,0.,12.0,0.,12.0,0.,12.0,0.,12.0
1979-07-04 07:03:03.920 ,4,0,0.,12.0,0.,12.0,0.,12.0,0.,12.0
1979-07-04 07:03:15.920 ,5,1,0.,12.0,0.,12.0,0.,12.0,0.,12.0
1979-07-04 07:03:27.920 ,5,1,0.,12.0,0.,12.0,0.,12.0,0.,12.0
1979-07-04 07:03:39.920 ,5,0,0.,12.0,0.,12.0,0.,12.0,0.,12.0
1979-07-04 07:03:51.920 ,5,0,0.,12.0,0.,12.0,0.,12.0,0.,12.0
1979-07-04 07:04:03.920 ,6,1,0.,12.0,0.,12.0,0.,12.0,0.,12.0
1979-07-04 07:04:15.920 ,6,1,0.,12.0,0.,12.0,0.,12.0,0.,12.0
1979-07-04 07:04:27.920 ,6,0,0.,12.0,0.,12.0,0.,12.0,0.,12.0
1979-07-04 07:04:39.920 ,6,0,0.,12.0,0.,12.0,0.,12.0,0.,12.0
1979-07-04 07:04:51.920 ,7,1,0.,12.0,0.,12.0,0.,12.0,0.,12.0
1979-07-04 07:05:03.920 ,7,1,0.,12.0,0.,12.0,0.,12.0,0.,12.0
1979-07-04 07:05:15.920 ,7,0,0.,12.0,0.,12.0,0.,12.0,0.,12.0
1979-07-04 07:05:27.920 ,7,0,0.,12.0,0.,12.0,0.,12.0,0.,12.0
1979-07-04 07:05:39.920 ,7,1,0.,12.0,0.,12.0,0.,12.0,0.,12.0
1979-07-04 07:05:51.920 ,7,1,0.,12.0,0.,12.0,0.,12.0,0.,12.0
1979-07-04 07:06:03.920 ,7,0,0.,12.0,0.,12.0,0.,12.0,0.,12.0
1979-07-04 07:06:15.920 ,7,0,0.,12.0,0.,12.0,0.,12.0,0.,12.0
1979-07-04 07:06:27.920 ,6,1,0.,12.0,0.,12.0,0.,12.0,0.,12.0
1979-07-04 07:06:39.920 ,6,1,0.,12.0,0.,12.0,0.,12.0,0.,12.0
1979-07-04 07:06:51.920 ,6,0,0.,12.0,0.,12.0,0.,12.0,0.,12.0
1979-07-04 07:07:03.920 ,6,0,0.,12.0,0.,12.0,0.,12.0,0.,12.0
1979-07-04 07:07:15.920 ,5,1,0.,12.0,0.,12.0,0.,12.0,0.,12.0
1979-07-04 07:07:27.920 ,5,1,0.,12.0,0.,12.0,0.,12.0,0.,12.0
1979-07-04 07:07:39.920 ,5,0,0.,12.0,0.,12.0,0.,12.0,0.,12.0
1979-07-04 07:07:51.920 ,5,0,0.,12.0,0.,12.0,0.,12.0,0.,12.0
1979-07-04 07:08:03.920 ,4,1,0.,12.0,0.,12.0,0.,12.0,0.,12.0
1979-07-04 07:08:15.920 ,4,1,0.,12.0,0.,12.0,0.,12.0,0.,12.0
1979-07-04 07:08:27.920 ,4,0,0.,12.0,0.,12.0,0.,12.0,0.,12.0
1979-07-04 07:08:39.920 ,4,0,0.,12.0,0.,12.0,0.,12.0,0.,12.0
1979-07-04 07:08:51.910 ,3,1,0.,12.0,0.,12.0,0.,12.0,0.,12.0
1979-07-04 07:09:03.920 ,3,1,0.,12.0,0.,12.0,0.,12.0,0.,12.0
1979-07-04 07:09:15.910 ,3,0,0.,12.0,0.,12.0,0.,12.0,0.,12.0
1979-07-04 07:09:27.920 ,3,0,0.,12.0,0.,12.0,0.,12.0,0.,12.0
1979-07-04 07:09:39.910 ,2,1,0.,12.0,0.,12.0,0.,12.0,0.,12.0
1979-07-04 07:09:51.920 ,2,1,0.,12.0,0.,12.0,0.,12.0,0.,12.0
1979-07-04 07:10:03.910 ,2,0,0.,12.0,0.,12.0,0.,12.0,0.,12.0
1979-07-04 07:10:15.920 ,2,0,0.,12.0,0.,12.0,0.,12.0,0.,12.0
1979-07-04 07:10:27.910 ,1,1,0.,12.0,0.,12.0,0.,12.0,0.,12.0
1979-07-04 07:10:39.920 ,1,1,0.,12.0,0.,12.0,0.,12.0,0.,12.0
1979-07-04 07:10:51.910 ,1,0,0.,12.0,0.,12.0,0.,12.0,0.,12.0
1979-07-04 07:11:03.920 ,1,0,0.,12.0,0.,12.0,0.,12.0,0.,12.0
1979-07-04 07:11:15.910 ,0,1,0.,12.0,0.,12.0,0.,12.0,0.,12.0
1979-07-04 07:11:27.920 ,0,1,0.,12.0,0.,12.0,0.,12.0,0.,12.0
1979-07-04 07:11:39.910 ,0,0,0.,12.0,0.,12.0,0.,12.0,0.,12.0
1979-07-04 07:11:51.920 ,0,0,0.,12.0,0.,12.0,0.,12.0,0.,12.0
1979-07-04 07:12:03.910 ,0,1,0.,12.0,0.,12.0,0.,12.0,0.,12.0
1979-07-04 07:12:15.920 ,0,1,0.,12.0,0.,12.0,0.,12.0,0.,12.0
1979-07-04 07:12:27.910 ,0,0,0.,12.0,0.,12.0,0.,12.0,0.,12.0
1979-07-04 07:12:39.920 ,0,0,0.,12.0,0.,12.0,0.,12.0,0.,12.0
1979-07-04 07:12:51.910 ,1,1,0.,12.0,0.,12.0,0.,12.0,0.,12.0
1979-07-04 07:13:03.920 ,1,1,0.,12.0,0.,12.0,0.,12.0,0.,12.0
1979-07-04 07:13:15.910 ,1,0,0.,12.0,0.,12.0,0.,12.0,0.,12.0
1979-07-04 07:13:27.920 ,1,0,0.,12.0,0.,12.0,0.,12.0,0.,12.0
1979-07-04 07:13:39.910 ,2,1,0.,12.0,0.,12.0,0.,12.0,0.,12.0
1979-07-04 07:13:51.920 ,2,1,0.,12.0,0.,12.0,0.,12.0,0.,12.0
1979-07-04 07:14:03.910 ,2,0,0.,12.0,0.,12.0,0.,12.0,0.,12.0
1979-07-04 07:14:15.920 ,2,0,0.,12.0,0.,12.0,0.,12.0,0.,12.0
1979-07-04 07:14:27.910 ,3,1,0.,12.0,0.,12.0,0.,12.0,0.,12.0
1979-07-04 07:14:39.920 ,3,1,0.,12.0,0.,12.0,0.,12.0,0.,12.0
1979-07-04 07:14:51.910 ,3,0,0.,12.0,0.,12.0,0.,12.0,0.,12.0
1979-07-04 07:15:03.920 ,3,0,0.,12.0,0.,12.0,0.,12.0,0.,12.0
1979-07-04 07:15:15.910 ,4,1,0.,12.0,0.,12.0,0.,12.0,0.,12.0
1979-07-04 07:15:27.910 ,4,1,0.,12.0,0.,12.0,0.,12.0,0.,12.0
1979-07-04 07:15:39.910 ,4,0,0.,12.0,0.,12.0,0.,12.0,0.,12.0
1979-07-04 07:15:51.910 ,4,0,0.,12.0,0.,12.0,0.,12.0,0.,12.0
1979-07-04 07:16:03.910 ,5,1,0.,12.0,0.,12.0,0.,12.0,0.,12.0
1979-07-04 07:16:15.910 ,5,1,0.,12.0,0.,12.0,0.,12.0,0.,12.0
1979-07-04 07:16:27.910 ,5,0,0.,12.0,0.,12.0,0.,12.0,0.,12.0
1979-07-04 07:16:39.910 ,5,0,0.,12.0,0.,12.0,0.,12.0,0.,12.0
1979-07-04 07:16:51.910 ,6,1,0.,12.0,0.,12.0,0.,12.0,0.,12.0
1979-07-04 07:17:03.910 ,6,1,0.,12.0,0.,12.0,0.,12.0,0.,12.0
1979-07-04 07:17:15.910 ,6,0,0.,12.0,0.,12.0,0.,12.0,0.,12.0
1979-07-04 07:17:27.910 ,6,0,0.,12.0,0.,12.0,0.,12.0,0.,12.0